TimeCST,TemperatureF,Dew PointF,Humidity,Sea Level PressureIn,VisibilityMPH,Wind Direction,Wind SpeedMPH,Gust SpeedMPH,PrecipitationIn,Events,Conditions,WindDirDegrees,DateUTC
12:15 AM,41.9,31.5,66,30.23,10.0,SSE,8.1,-,N/A,,Overcast,160,2012-11-15 06:15:00
12:55 AM,41.5,31.6,68,30.22,10.0,SSE,8.1,-,N/A,,Scattered Clouds,160,2012-11-15 06:55:00
1:15 AM,41.4,31.8,69,30.21,10.0,South,6.9,-,N/A,,Clear,170,2012-11-15 07:15:00
1:35 AM,41.5,31.8,68,30.21,10.0,South,10.4,-,N/A,,Mostly Cloudy,170,2012-11-15 07:35:00
1:55 AM,41.9,31.8,67,30.21,10.0,SSE,6.9,-,N/A,,Mostly Cloudy,160,2012-11-15 07:55:00
2:15 AM,41.0,32.0,70,30.22,10.0,SSE,5.8,-,N/A,,Scattered Clouds,160,2012-11-15 08:15:00
2:35 AM,40.8,32.0,71,30.22,10.0,SSE,3.5,-,N/A,,Scattered Clouds,150,2012-11-15 08:35:00
2:55 AM,40.5,32.2,72,30.22,10.0,SSE,4.6,-,N/A,,Overcast,160,2012-11-15 08:55:00
3:15 AM,40.5,32.7,74,30.22,10.0,South,5.8,-,N/A,,Overcast,180,2012-11-15 09:15:00
3:35 AM,42.3,32.2,67,30.21,10.0,South,5.8,-,N/A,,Mostly Cloudy,180,2012-11-15 09:35:00
3:55 AM,41.0,32.9,73,30.21,10.0,South,8.1,-,N/A,,Mostly Cloudy,180,2012-11-15 09:55:00
4:15 AM,42.1,32.9,70,30.21,10.0,South,8.1,-,N/A,,Mostly Cloudy,180,2012-11-15 10:15:00
4:35 AM,43.0,32.4,66,30.21,10.0,South,8.1,-,N/A,,Overcast,170,2012-11-15 10:35:00
4:55 AM,42.8,32.9,68,30.21,10.0,South,8.1,-,N/A,,Overcast,180,2012-11-15 10:55:00
5:15 AM,43.7,32.4,64,30.22,10.0,South,8.1,-,N/A,,Overcast,190,2012-11-15 11:15:00
5:35 AM,43.7,32.5,65,30.21,10.0,South,10.4,-,N/A,,Overcast,190,2012-11-15 11:35:00
5:55 AM,44.6,32.0,61,30.22,10.0,South,4.6,-,N/A,,Overcast,170,2012-11-15 11:55:00
6:15 AM,43.2,32.4,66,30.22,10.0,South,8.1,-,N/A,,Mostly Cloudy,180,2012-11-15 12:15:00
6:35 AM,43.0,32.4,66,30.22,10.0,South,8.1,-,N/A,,Mostly Cloudy,180,2012-11-15 12:35:00
6:55 AM,42.6,32.5,68,30.24,10.0,South,6.9,-,N/A,,Mostly Cloudy,190,2012-11-15 12:55:00
7:15 AM,42.1,32.9,70,30.24,10.0,South,8.1,-,N/A,,Overcast,190,2012-11-15 13:15:00
7:35 AM,42.3,32.9,69,30.24,10.0,South,9.2,-,N/A,,Mostly Cloudy,180,2012-11-15 13:35:00
7:55 AM,42.8,32.7,68,30.24,10.0,SSW,5.8,-,N/A,,Scattered Clouds,200,2012-11-15 13:55:00
8:15 AM,43.9,32.5,64,30.25,10.0,SW,5.8,-,N/A,,Clear,220,2012-11-15 14:15:00
8:35 AM,44.6,32.9,64,30.26,10.0,SW,6.9,-,N/A,,Clear,220,2012-11-15 14:35:00
8:55 AM,45.7,32.9,61,30.26,10.0,SW,9.2,-,N/A,,Clear,220,2012-11-15 14:55:00
9:15 AM,47.5,33.3,58,30.26,10.0,WSW,8.1,-,N/A,,Clear,240,2012-11-15 15:15:00
9:35 AM,50.0,33.1,52,30.27,10.0,WSW,9.2,-,N/A,,Clear,250,2012-11-15 15:35:00
9:55 AM,51.8,32.4,48,30.27,10.0,WSW,10.4,-,N/A,,Clear,250,2012-11-15 15:55:00
10:15 AM,53.4,32.7,45,30.28,10.0,West,11.5,-,N/A,,Clear,270,2012-11-15 16:15:00
10:35 AM,54.9,32.4,42,30.29,10.0,WNW,10.4,16.1,N/A,,Mostly Cloudy,290,2012-11-15 16:35:00
10:55 AM,53.1,32.0,45,30.28,10.0,WNW,10.4,-,N/A,,Scattered Clouds,290,2012-11-15 16:55:00
11:15 AM,54.1,32.0,43,30.28,10.0,WNW,8.1,-,N/A,,Clear,300,2012-11-15 17:15:00
11:35 AM,55.2,32.7,43,30.28,10.0,West,9.2,-,N/A,,Clear,280,2012-11-15 17:35:00
11:55 AM,56.3,32.5,41,30.27,10.0,West,6.9,-,N/A,,Clear,270,2012-11-15 17:55:00
12:15 PM,59.0,32.9,37,30.27,10.0,West,9.2,-,N/A,,Clear,280,2012-11-15 18:15:00
12:35 PM,59.5,32.2,36,30.26,10.0,WNW,6.9,-,N/A,,Clear,300,2012-11-15 18:35:00
12:55 PM,60.6,32.0,34,30.26,10.0,WNW,8.1,-,N/A,,Clear,300,2012-11-15 18:55:00
1:15 PM,61.0,31.6,33,30.26,10.0,NW,10.4,-,N/A,,Clear,320,2012-11-15 19:15:00
1:35 PM,61.2,31.3,32,30.26,10.0,NNW,8.1,-,N/A,,Clear,330,2012-11-15 19:35:00
1:55 PM,61.2,29.5,30,30.26,10.0,NNW,8.1,-,N/A,,Clear,340,2012-11-15 19:55:00
2:15 PM,61.3,30.7,32,30.26,10.0,NNW,8.1,-,N/A,,Clear,330,2012-11-15 20:15:00
2:35 PM,61.3,31.1,32,30.26,10.0,NNW,8.1,-,N/A,,Clear,340,2012-11-15 20:35:00
2:55 PM,61.7,30.9,31,30.26,10.0,NNW,10.4,-,N/A,,Clear,330,2012-11-15 20:55:00
3:15 PM,61.0,31.1,32,30.27,10.0,North,9.2,-,N/A,,Clear,350,2012-11-15 21:15:00
3:35 PM,60.8,30.7,32,30.28,10.0,North,10.4,-,N/A,,Clear,350,2012-11-15 21:35:00
3:55 PM,59.9,29.8,32,30.28,10.0,NNW,10.4,-,N/A,,Clear,340,2012-11-15 21:55:00
4:15 PM,58.6,31.1,35,30.29,10.0,NNW,10.4,-,N/A,,Clear,340,2012-11-15 22:15:00
4:35 PM,56.8,32.0,39,30.30,10.0,North,9.2,-,N/A,,Clear,350,2012-11-15 22:35:00
4:55 PM,54.9,32.9,43,30.30,10.0,North,9.2,-,N/A,,Clear,350,2012-11-15 22:55:00
5:35 PM,51.4,33.1,50,30.32,10.0,North,9.2,-,N/A,,Clear,350,2012-11-15 23:35:00
5:55 PM,50.4,33.1,52,30.33,10.0,NNW,9.2,-,N/A,,Clear,340,2012-11-15 23:55:00
6:15 PM,48.9,33.3,55,30.34,10.0,NNW,6.9,-,N/A,,Clear,340,2012-11-16 00:15:00
6:35 PM,48.7,33.8,56,30.35,10.0,NNW,9.2,-,N/A,,Clear,340,2012-11-16 00:35:00
6:55 PM,49.1,32.9,54,30.36,10.0,North,12.7,-,N/A,,Clear,350,2012-11-16 00:55:00
7:35 PM,47.8,32.4,55,30.37,10.0,North,11.5,-,N/A,,Clear,350,2012-11-16 01:35:00
7:55 PM,46.6,32.4,58,30.38,10.0,North,10.4,-,N/A,,Clear,350,2012-11-16 01:55:00
8:15 PM,44.6,32.9,64,30.38,10.0,North,10.4,-,N/A,,Clear,360,2012-11-16 02:15:00
8:55 PM,42.3,32.9,69,30.39,10.0,North,11.5,-,N/A,,Clear,360,2012-11-16 02:55:00
9:15 PM,41.0,32.7,72,30.41,10.0,North,9.2,-,N/A,,Clear,360,2012-11-16 03:15:00
9:35 PM,39.6,32.4,75,30.41,10.0,North,8.1,-,N/A,,Clear,350,2012-11-16 03:35:00
9:55 PM,38.5,32.0,78,30.41,10.0,North,6.9,-,N/A,,Clear,360,2012-11-16 03:55:00
10:15 PM,36.9,31.8,82,30.41,10.0,North,6.9,-,N/A,,Clear,350,2012-11-16 04:15:00
10:35 PM,36.5,31.6,83,30.41,10.0,NNW,5.8,-,N/A,,Clear,340,2012-11-16 04:35:00
10:55 PM,35.8,31.5,84,30.42,10.0,NNW,6.9,-,N/A,,Clear,340,2012-11-16 04:55:00
11:15 PM,35.6,30.7,82,30.43,10.0,NNW,5.8,-,N/A,,Clear,330,2012-11-16 05:15:00
11:35 PM,35.1,30.2,82,30.43,10.0,NNW,9.2,-,N/A,,Clear,330,2012-11-16 05:35:00
11:55 PM,33.8,29.7,85,30.43,10.0,NNW,8.1,-,N/A,,Clear,340,2012-11-16 05:55:00